This is the latest recevied weather packets stored in our database for station/object KI4HRG. If no packets are shown the sender has not sent any weather packets the latest 10 day(s).
| Time | Temp. | Humidity | Pressure | Rain* | Wind** | Luminosity | Snow |
|---|---|---|---|---|---|---|---|
| 1778031813 | 21.67° C | 74% | 1011.6 hPa | 0 mm | - | 0 W/m² | - |
| 1778031509 | 21.67° C | 73% | 1011.4 hPa | 0 mm | - | 0 W/m² | - |
| 1778031207 | 21.67° C | 73% | 1011.6 hPa | 0 mm | - | 0 W/m² | - |
| 1778030903 | 21.67° C | 72% | 1011.5 hPa | 0 mm | - | 0 W/m² | - |
| 1778030601 | 21.67° C | 73% | 1011.8 hPa | 0 mm | - | 0 W/m² | - |
| 1778030298 | 21.67° C | 72% | 1011.9 hPa | 0 mm | - | 0 W/m² | - |
| 1778029994 | 21.67° C | 72% | 1011.8 hPa | 0 mm | - | 0 W/m² | - |
| 1778029692 | 21.67° C | 72% | 1011.7 hPa | 0 mm | - | 0 W/m² | - |
| 1778029389 | 21.67° C | 71% | 1011.5 hPa | 0 mm | - | 0 W/m² | - |
| 1778029086 | 21.67° C | 71% | 1011.6 hPa | 0 mm | - | 0 W/m² | - |
| 1778028783 | 22.22° C | 71% | 1011.4 hPa | 0 mm | - | 0 W/m² | - |
| 1778028479 | 22.22° C | 70% | 1011.5 hPa | 0 mm | - | 0 W/m² | - |
| 1778028177 | 22.78° C | 69% | 1011.4 hPa | 0 mm | - | 0 W/m² | - |
| 1778027873 | 22.78° C | 68% | 1011.2 hPa | 0 mm | - | 0 W/m² | - |
| 1778027569 | 22.78° C | 67% | 1011.2 hPa | 0 mm | - | 1 W/m² | - |
| 1778027265 | 23.33° C | 66% | 1011.3 hPa | 0 mm | - | 3 W/m² | - |
| 1778026962 | 23.33° C | 66% | 1011.4 hPa | 0 mm | - | 6 W/m² | - |
| 1778026658 | 23.33° C | 66% | 1011.6 hPa | 0 mm | - | 7 W/m² | - |
| 1778026356 | 23.89° C | 65% | 1011.5 hPa | 0 mm | - | 12 W/m² | - |
| 1778026052 | 23.89° C | 64% | 1011.6 hPa | 0 mm | - | 16 W/m² | - |
| 1778025750 | 23.89° C | 64% | 1011.9 hPa | 0 mm | - | 10 W/m² | - |
| 1778025446 | 23.89° C | 63% | 1011.7 hPa | 0 mm | - | 15 W/m² | - |
| 1778025144 | 23.89° C | 63% | 1011.8 hPa | 0 mm | - | 24 W/m² | - |
| 1778024841 | 23.89° C | 63% | 1011.6 hPa | 0 mm | - | 23 W/m² | - |
| 1778024538 | 23.89° C | 62% | 1011.7 hPa | 0 mm | - | 27 W/m² | - |
* Rain latest hour (hover to see other rain measurements)
** Current wind speed in m/s (hover to see current wind gust speed)